User: anonymous   Login
Location: Caltech
(34.1382°N, 118.1253°W)
Time: 15:20:03
(UTC-07:00)
Language:

Cosmos 1606 - Orbit

View from above orbital plane
View from above orbital plane
View from above satellite
View from above satellite

Ground track
Ground track

The orbit data is extracted from the following two-line orbital elements,

1 15369U 84111A   15243.91664910 +.00001468 +00000-0 +79588-4 0  9990
2 15369 082.5282 046.3888 0018955 011.9879 348.1799 15.13661229681263
Epoch (UTC): 31 August 2015 21:59:58
Eccentricity: 0.0018955
inclination: 82.5282°
perigee height: 512 km
apogee height: 538 km
right ascension of ascending node: 46.3888°
argument of perigee: 11.9879°
revolutions per day: 15.13661229
mean anomaly at epoch: 348.1799°
orbit number at epoch: 68126

The dashed part of the orbit path shows where the satellite is in the earth's shadow,  

DLR